TimeCDT,TemperatureF,Dew PointF,Humidity,Sea Level PressureIn,VisibilityMPH,Wind Direction,Wind SpeedMPH,Gust SpeedMPH,PrecipitationIn,Events,Conditions,WindDirDegrees,DateUTC
12:15 AM,77.4,77.4,100,30.14,10.0,ESE,5.8,-,N/A,,Mostly Cloudy,120,2013-07-17 05:15:00
12:35 AM,76.8,76.8,100,30.14,10.0,SE,5.8,-,N/A,Rain,Light Rain,140,2013-07-17 05:35:00
12:55 AM,76.1,76.1,100,30.13,10.0,ESE,4.6,-,N/A,Rain,Light Rain,110,2013-07-17 05:55:00
1:15 AM,76.1,76.1,100,30.13,10.0,Calm,Calm,-,N/A,Rain,Light Rain,0,2013-07-17 06:15:00
1:35 AM,75.9,75.9,100,30.13,10.0,NE,3.5,-,N/A,Rain,Light Rain,50,2013-07-17 06:35:00
1:55 AM,76.1,76.1,100,30.13,10.0,ENE,3.5,-,N/A,,Light Drizzle,70,2013-07-17 06:55:00
2:15 AM,76.3,76.3,100,30.12,10.0,Calm,Calm,-,N/A,Rain-Thunderstorm,Light Thunderstorms and Rain,0,2013-07-17 07:15:00
2:35 AM,76.6,76.6,100,30.12,10.0,East,3.5,-,N/A,,Light Drizzle,90,2013-07-17 07:35:00
2:55 AM,76.5,76.5,100,30.11,10.0,ESE,4.6,-,N/A,Rain,Light Rain,110,2013-07-17 07:55:00
3:15 AM,76.3,76.3,100,30.10,10.0,Calm,Calm,-,N/A,Thunderstorm,Unknown,0,2013-07-17 08:15:00
3:35 AM,76.3,76.3,100,30.10,10.0,Calm,Calm,-,N/A,,Clear,0,2013-07-17 08:35:00
3:55 AM,76.1,76.1,100,30.11,10.0,Calm,Calm,-,N/A,,Clear,0,2013-07-17 08:55:00
4:15 AM,76.3,76.3,100,30.12,10.0,ENE,4.6,-,N/A,,Scattered Clouds,70,2013-07-17 09:15:00
4:35 AM,76.5,76.5,100,30.12,10.0,ENE,3.5,-,N/A,Rain,Rain,70,2013-07-17 09:35:00
4:55 AM,76.3,76.3,100,30.12,10.0,East,3.5,-,N/A,,Light Drizzle,80,2013-07-17 09:55:00
5:15 AM,76.3,76.3,100,30.12,10.0,NE,3.5,-,N/A,,Clear,50,2013-07-17 10:15:00
5:35 AM,76.1,76.1,100,30.13,10.0,NE,4.6,-,N/A,,Scattered Clouds,50,2013-07-17 10:35:00
5:55 AM,75.9,75.9,100,30.13,10.0,NE,4.6,-,N/A,,Scattered Clouds,40,2013-07-17 10:55:00
6:15 AM,75.6,75.6,100,30.14,10.0,ENE,5.8,-,N/A,,Clear,60,2013-07-17 11:15:00
6:35 AM,75.6,75.6,100,30.14,10.0,ENE,5.8,-,N/A,Thunderstorm,Mostly Cloudy,60,2013-07-17 11:35:00
6:55 AM,75.9,75.9,100,30.13,10.0,ENE,4.6,-,N/A,,Mostly Cloudy,60,2013-07-17 11:55:00
7:15 AM,76.1,76.1,100,30.14,10.0,ENE,5.8,-,N/A,Thunderstorm,Mostly Cloudy,60,2013-07-17 12:15:00
7:35 AM,76.3,76.3,100,30.16,10.0,East,4.6,-,N/A,Thunderstorm,Overcast,80,2013-07-17 12:35:00
7:55 AM,76.6,76.6,100,30.16,10.0,ENE,6.9,-,N/A,Thunderstorm,Thunderstorm,70,2013-07-17 12:55:00
8:15 AM,77.5,77.5,100,30.17,7.0,East,8.1,-,N/A,,Overcast,90,2013-07-17 13:15:00
8:35 AM,78.8,78.8,100,30.18,10.0,East,9.2,-,N/A,,Overcast,90,2013-07-17 13:35:00
8:55 AM,78.8,78.8,100,30.19,10.0,ESE,8.1,-,N/A,Thunderstorm,Mostly Cloudy,110,2013-07-17 13:55:00
9:15 AM,77.0,75.2,94,30.18,7.0,ESE,8.1,12.7,N/A,Rain-Thunderstorm,Light Thunderstorms and Rain,120,2013-07-17 14:15:00
9:35 AM,75.4,75.4,100,30.20,10.0,East,4.6,-,N/A,Thunderstorm,Unknown,100,2013-07-17 14:35:00
9:55 AM,75.4,75.2,99,30.20,10.0,ESE,3.5,-,N/A,Rain,Light Rain,120,2013-07-17 14:55:00
10:15 AM,75.9,75.7,99,30.20,10.0,Calm,Calm,-,N/A,,Scattered Clouds,0,2013-07-17 15:15:00
10:35 AM,76.8,76.5,99,30.20,10.0,Calm,Calm,-,N/A,,Mostly Cloudy,0,2013-07-17 15:35:00
10:55 AM,77.4,75.6,94,30.20,10.0,ESE,3.5,-,N/A,,Mostly Cloudy,110,2013-07-17 15:55:00
11:15 AM,78.8,74.3,86,30.20,10.0,ESE,3.5,-,N/A,,Mostly Cloudy,120,2013-07-17 16:15:00
11:35 AM,79.2,74.8,87,30.20,10.0,SE,4.6,-,N/A,Rain-Thunderstorm,Light Thunderstorms and Rain,130,2013-07-17 16:35:00
11:55 AM,80.2,77.4,91,30.20,10.0,SE,3.5,-,N/A,Rain-Thunderstorm,Light Thunderstorms and Rain,130,2013-07-17 16:55:00
12:15 PM,81.5,75.2,81,30.20,10.0,East,4.6,-,N/A,Thunderstorm,Scattered Clouds,90,2013-07-17 17:15:00
12:35 PM,82.8,73.0,72,30.19,10.0,East,5.8,-,N/A,Thunderstorm,Clear,80,2013-07-17 17:35:00
12:55 PM,83.1,72.5,70,30.19,10.0,East,8.1,-,N/A,,Clear,90,2013-07-17 17:55:00
1:15 PM,82.4,72.9,73,30.19,10.0,North,-9999.0,-,N/A,,Clear,0,2013-07-17 18:15:00
1:35 PM,82.6,73.6,74,30.19,10.0,SE,4.6,-,N/A,,Clear,130,2013-07-17 18:35:00
1:55 PM,82.6,72.9,72,30.19,10.0,North,-9999.0,-,N/A,,Clear,0,2013-07-17 18:55:00
2:15 PM,82.6,73.6,74,30.18,10.0,North,-9999.0,-,N/A,,Clear,0,2013-07-17 19:15:00
2:35 PM,83.3,73.8,73,30.17,10.0,North,-9999.0,-,N/A,,Clear,0,2013-07-17 19:35:00
2:55 PM,83.5,73.8,72,30.17,10.0,East,3.5,-,N/A,,Clear,90,2013-07-17 19:55:00
3:15 PM,86.2,74.1,67,30.16,10.0,North,-9999.0,-,N/A,,Clear,0,2013-07-17 20:15:00
3:35 PM,88.5,73.9,62,30.15,10.0,East,6.9,-,N/A,,Clear,80,2013-07-17 20:35:00
3:55 PM,89.2,73.0,59,30.13,10.0,East,4.6,-,N/A,,Scattered Clouds,90,2013-07-17 20:55:00
4:15 PM,89.4,72.9,58,30.13,10.0,East,6.9,-,N/A,,Mostly Cloudy,90,2013-07-17 21:15:00
4:35 PM,89.1,73.4,60,30.12,10.0,ESE,8.1,-,N/A,,Scattered Clouds,110,2013-07-17 21:35:00
4:55 PM,88.7,73.2,60,30.13,10.0,ESE,9.2,-,N/A,,Scattered Clouds,120,2013-07-17 21:55:00
5:15 PM,88.0,72.7,60,30.13,10.0,ESE,10.4,-,N/A,,Scattered Clouds,120,2013-07-17 22:15:00
5:35 PM,88.2,73.6,62,30.12,10.0,ESE,8.1,-,N/A,,Scattered Clouds,110,2013-07-17 22:35:00
5:55 PM,89.4,72.9,58,30.12,10.0,East,5.8,-,N/A,,Scattered Clouds,100,2013-07-17 22:55:00
6:15 PM,88.7,72.5,59,30.13,10.0,East,9.2,-,N/A,,Scattered Clouds,100,2013-07-17 23:15:00
6:35 PM,86.9,72.5,62,30.11,10.0,ESE,5.8,-,N/A,,Scattered Clouds,110,2013-07-17 23:35:00
6:55 PM,86.0,72.7,64,30.11,10.0,East,4.6,-,N/A,,Clear,100,2013-07-17 23:55:00
7:15 PM,85.3,73.4,67,30.11,10.0,Calm,Calm,-,N/A,,Clear,0,2013-07-18 00:15:00
7:35 PM,85.1,72.9,67,30.12,10.0,East,4.6,-,N/A,,Clear,90,2013-07-18 00:35:00
7:55 PM,84.2,73.0,69,30.13,10.0,North,-9999.0,-,N/A,,Scattered Clouds,0,2013-07-18 00:55:00
8:15 PM,83.1,73.9,74,30.13,10.0,North,-9999.0,-,N/A,,Mostly Cloudy,0,2013-07-18 01:15:00
8:35 PM,81.7,72.7,74,30.13,10.0,Calm,Calm,-,N/A,,Scattered Clouds,0,2013-07-18 01:35:00
8:55 PM,78.8,73.2,83,30.14,10.0,NE,4.6,-,N/A,,Clear,50,2013-07-18 01:55:00
9:15 PM,78.6,72.9,82,30.14,10.0,Calm,Calm,-,N/A,,Clear,0,2013-07-18 02:15:00
9:35 PM,76.5,76.1,99,30.15,10.0,Calm,Calm,-,N/A,,Clear,0,2013-07-18 02:35:00
9:55 PM,77.2,75.4,94,30.15,10.0,Calm,Calm,-,N/A,,Clear,0,2013-07-18 02:55:00
10:15 PM,77.9,73.0,85,30.15,10.0,Calm,Calm,-,N/A,,Clear,0,2013-07-18 03:15:00
10:35 PM,75.2,75.2,100,30.15,10.0,Calm,Calm,-,N/A,,Clear,0,2013-07-18 03:35:00
10:55 PM,75.0,75.0,100,30.15,10.0,Calm,Calm,-,N/A,,Clear,0,2013-07-18 03:55:00
11:15 PM,75.4,75.4,100,30.15,10.0,Calm,Calm,-,N/A,,Clear,0,2013-07-18 04:15:00
11:35 PM,74.7,74.7,100,30.15,10.0,Calm,Calm,-,N/A,,Clear,0,2013-07-18 04:35:00
11:55 PM,74.5,74.5,100,30.15,10.0,Calm,Calm,-,N/A,,Clear,0,2013-07-18 04:55:00